• Join FlightAware (Why Join?)
  • Login
  • US Flag 
09:35AM EDT


 

Airport Tracker/Info


-or-


 

Live Flight TrackerFlight Track Log ✈ CTL13 ✈ 17-Apr-2013 ✈ KEYE - KMDW

Flight Track Log - Related Links

Times and Time Zones

All times are in EDT time to prevent confusion due to time zone crossing. See the CTL13 flight status page for this flight to view local times or setup timezone preferences in your user account.

Time Position Orientation Groundspeed Altitude Reporting Facility
EDT Latitude Longitude Course Direction KTS MPH feet Rate Location/Type
09:51PM 39.8500 -86.2833 323° Northwest 122 140 1,100  Level Indianapolis TRACON
09:52PM 39.8833 -86.3167 323° Northwest 146 168 2,100 600 Climbing Indianapolis TRACON
09:53PM 39.9000 -86.3833 288° West 155 178 2,500 360 Climbing Indianapolis TRACON
09:54PM 39.9167 -86.4333 294° West 162 186 2,900 360 Climbing Indianapolis TRACON
09:55PM 39.9333 -86.4833 294° West 159 183 3,200 360 Climbing Indianapolis TRACON
09:56PM 39.9500 -86.5333 294° West 155 178 3,600 360 Climbing Indianapolis TRACON
09:57PM 39.9667 -86.5667 303° West 150 173 3,900 180 Climbing Indianapolis TRACON
09:58PM 40.0000 -86.6167 311° West 157 181 4,000  Climbing Indianapolis TRACON
09:59PM 40.0167 -86.6667 294° West 159 183 4,000  Level Indianapolis TRACON
10:00PM 40.0333 -86.7167 294° West 153 176 4,000  Level Indianapolis TRACON
10:01PM 40.0667 -86.7667 311° West 167 192 4,000 -60 Level Indianapolis TRACON
10:03PM 40.1330 -86.8037 330° Northwest  Level Estimated
10:04PM 40.1622 -86.8842 330° Northwest 173 199 3,900  Level Chicago Center
10:05PM 40.2028 -86.9169 328° Northwest 179 206 3,900  Level Chicago Center
10:06PM 40.2472 -86.9553 327° Northwest 181 208 3,900  Level Chicago Center
10:07PM 40.2875 -86.9906 326° Northwest 181 208 3,900  Level Chicago Center
10:08PM 40.3386 -87.0186 337° Northwest 188 216 3,900  Level Chicago Center
10:09PM 40.3903 -87.0358 346° North 193 222 3,900  Level Chicago Center
10:10PM 40.4436 -87.0558 344° North 192 221 4,000 60 Climbing Chicago Center
10:10PM 40.4603 -87.0575 356° North 216 249 4,000 -120 Level Chicago Center
10:11PM 40.4908 -87.0781 333° Northwest 193 222 3,900  Descending Chicago Center
10:11PM 40.5083 -87.0831 348° North 188 216 4,000  Climbing Chicago Center
10:12PM 40.5464 -87.1011 340° North 193 222 3,900 -120 Descending Chicago Center
10:12PM 40.5600 -87.1042 350° North 192 221 3,900  Level Chicago Center
10:13PM 40.6019 -87.1214 343° North 196 226 3,900 60 Level Chicago Center
10:13PM 40.6125 -87.1233 352° North 193 222 4,000 60 Climbing Chicago Center
10:14PM 40.6628 -87.1444 342° North 193 222 4,000 -60 Level Chicago Center
10:15PM 40.7122 -87.1706 338° Northwest 193 222 3,900  Descending Chicago Center
10:16PM 40.7719 -87.1994 340° North 192 221 4,000  Climbing Chicago Center
10:17PM 40.8217 -87.2203 342° North 190 219 4,000  Level Chicago Center
10:18PM 40.8700 -87.2428 341° North 188 216 4,000  Level Chicago Center
10:19PM 40.9181 -87.2647 341° North 185 213 4,000  Level Chicago Center
10:20PM 40.9656 -87.2883 339° North 185 213 4,000  Level Chicago Center
10:21PM 41.0125 -87.3133 338° Northwest 184 212 4,000  Level Chicago Center
10:22PM 41.0589 -87.3378 338° Northwest 183 211 4,000  Level Chicago Center
10:23PM 41.1036 -87.3647 336° Northwest 181 208 4,000  Level Chicago Center
10:24PM 41.1508 -87.3919 337° Northwest 182 209 4,000  Level Chicago Center
10:26PM 41.1981 -87.4175 338° Northwest 184 212 4,000 -60 Level Chicago Center
10:27PM 41.2525 -87.4439 340° North 180 207 3,900 -60 Descending Chicago Center
10:28PM 41.2958 -87.4683 337° Northwest 175 201 3,900  Level Chicago Center
10:29PM 41.3386 -87.4906 339° North 170 196 3,900  Level Chicago Center
10:30PM 41.3800 -87.5128 338° Northwest 166 191 4,000  Climbing Chicago Center
10:31PM 41.4219 -87.5333 340° North 164 189 4,000 -60 Level Chicago Center
10:32PM 41.4644 -87.5522 342° North 163 188 3,900  Descending Chicago Center
10:33PM 41.5056 -87.5722 340° North 161 185 4,000  Climbing Chicago Center
10:34PM 41.5375 -87.6186 313° West 168 193 4,000 -60 Level Chicago Center
10:35PM 41.5461 -87.6858 280° West 167 192 3,900 -60 Descending Chicago Center
10:36PM 41.5447 -87.7425 268° West 159 183 3,900  Level Chicago Center
10:37PM 41.5500 -87.8017 277° West 165 190 3,900 -360 Level Chicago Center
10:38PM 41.5656 -87.8614 289° West 172 198 3,200 -780 Descending Chicago Center
10:39PM 41.5908 -87.9169 301° West 176 203 2,400 -420 Descending Chicago Center
10:40PM 41.6386 -87.9150 North 175 201 2,400 -60 Level Chicago Center
10:41PM 41.6803 -87.8886 25° Northeast 175 201 2,300  Descending Chicago Center
10:41PM 41.7000 -87.8500 56° Northeast 156 180 2,400 -300 Climbing Chicago TRACON
10:42PM 41.7333 -87.8167 37° Northeast 145 167 1,800 -600 Descending Chicago TRACON
10:43PM 41.7667 -87.7833 37° Northeast 122 140 1,200 -600 Descending Chicago TRACON
10:46PM 41.7833 -87.7500 334° Northwest  Level FlightAware Approximate